When you browse on this site, cookies collect data to enhance your experience and personalize the content and advertising you see.
Visit our Privacy Policy to learn more. By continuing to use the site, you agree to this use of cookies and data.
  • In Czech Republic
  • List of Countries
  • For 7 days
  • Water Temperature
  • Weather Map
  • Weather Widgets
  • user-avatar
    Login

    Hourly Weather Kerns

    Today, 16 November, Saturday

    Time Temperature Precipitation Wind Pressure Humidity
    00:00 +23°C° 0 mm 2 mps 759 mmHg 93%
    01:00 +23°C° 0 mm 2 mps 759 mmHg 93%
    02:00 +23°C° 0 mm 2 mps 759 mmHg 92%
    03:00 +24°C° 0 mm 2 mps 759 mmHg 91%
    04:00 +24°C° 0 mm 2 mps 758 mmHg 90%
    05:00 +25°C° 0 mm 2 mps 759 mmHg 86%
    06:00 +25°C° 0 mm 2 mps 759 mmHg 82%
    07:00 +26°C° 0 mm 2 mps 760 mmHg 79%
    08:00 +29°C° 0 mm 2 mps 760 mmHg 65%
    09:00 +31°C° 0 mm 3 mps 760 mmHg 52%
    10:00 +35°C° 0 mm 3 mps 760 mmHg 39%
    11:00 +36°C° 0 mm 3 mps 759 mmHg 37%
    12:00 +36°C° 0 mm 3 mps 759 mmHg 35%
    13:00 +37°C° 0 mm 4 mps 758 mmHg 32%
    14:00 +36°C° 0 mm 3 mps 758 mmHg 36%
    15:00 +35°C° 0 mm 3 mps 757 mmHg 39%
    16:00 +34°C° 0 mm 3 mps 757 mmHg 43%
    17:00 +30°C° 0 mm 3 mps 757 mmHg 55%
    18:00 +28°C° 0 mm 3 mps 758 mmHg 67%
    19:00 +25°C° 0 mm 2 mps 759 mmHg 79%
    20:00 +24°C° 0 mm 2 mps 759 mmHg 83%
    21:00 +23°C° 0 mm 2 mps 760 mmHg 87%
    22:00 +23°C° 0 mm 2 mps 760 mmHg 92%
    23:00 +21°C° 0 mm 2 mps 760 mmHg 93%

    Tomorrow, 17 November, Sunday

    Time Temperature Precipitation Wind Pressure Humidity
    00:00 +21°C° 0 mm 2 mps 760 mmHg 94%
    01:00 +21°C° 0 mm 2 mps 759 mmHg 95%
    02:00 +21°C° 0 mm 2 mps 759 mmHg 95%
    03:00 +22°C° 0 mm 1 mps 759 mmHg 95%
    04:00 +21°C° 0 mm 1 mps 759 mmHg 95%
    05:00 +23°C° 0 mm 1 mps 759 mmHg 89%
    06:00 +24°C° 0 mm 1 mps 760 mmHg 83%
    07:00 +26°C° 0 mm 2 mps 760 mmHg 77%
    08:00 +29°C° 0 mm 2 mps 760 mmHg 64%
    09:00 +32°C° 0 mm 2 mps 760 mmHg 50%
    10:00 +36°C° 0 mm 2 mps 760 mmHg 37%
    11:00 +36°C° 0 mm 2 mps 760 mmHg 34%
    12:00 +37°C° 0 mm 3 mps 759 mmHg 31%
    13:00 +38°C° 0 mm 3 mps 758 mmHg 29%
    14:00 +37°C° 0 mm 3 mps 758 mmHg 32%
    15:00 +36°C° 0 mm 3 mps 757 mmHg 36%
    16:00 +35°C° 0 mm 3 mps 757 mmHg 40%
    17:00 +31°C° 0 mm 3 mps 757 mmHg 54%
    18:00 +28°C° 0 mm 2 mps 758 mmHg 68%
    19:00 +25°C° 0 mm 2 mps 758 mmHg 81%
    20:00 +24°C° 0 mm 2 mps 758 mmHg 86%
    21:00 +24°C° 0 mm 2 mps 759 mmHg 91%
    22:00 +23°C° 0 mm 1 mps 759 mmHg 95%
    23:00 +23°C° 0 mm 1 mps 759 mmHg 95%

    Day after tomorrow, 18 November, Monday

    Time Temperature Precipitation Wind Pressure Humidity
    00:00 +22°C° 0 mm 1 mps 758 mmHg 96%
    01:00 +22°C° 0 mm 1 mps 758 mmHg 96%
    02:00 +22°C° 0 mm 1 mps 758 mmHg 96%
    03:00 +22°C° 0 mm 1 mps 758 mmHg 96%
    04:00 +22°C° 0 mm 1 mps 758 mmHg 96%
    05:00 +23°C° 0 mm 1 mps 758 mmHg 90%
    06:00 +24°C° 0 mm 1 mps 759 mmHg 84%
    07:00 +26°C° 0 mm 1 mps 759 mmHg 77%
    08:00 +29°C° 0 mm 1 mps 759 mmHg 63%
    09:00 +32°C° 0 mm 1 mps 759 mmHg 49%
    10:00 +35°C° 0 mm 1 mps 759 mmHg 36%
    11:00 +37°C° 0 mm 2 mps 758 mmHg 32%
    12:00 +38°C° 0 mm 2 mps 758 mmHg 28%
    13:00 +39°C° 0 mm 2 mps 757 mmHg 24%
    14:00 +38°C° 0 mm 3 mps 757 mmHg 27%
    15:00 +37°C° 0 mm 3 mps 757 mmHg 31%
    16:00 +36°C° 0 mm 4 mps 756 mmHg 35%
    17:00 +33°C° 0 mm 3 mps 757 mmHg 51%
    18:00 +29°C° 0 mm 3 mps 757 mmHg 66%
    19:00 +26°C° 0 mm 3 mps 758 mmHg 82%
    20:00 +25°C° 0 mm 3 mps 758 mmHg 87%
    21:00 +24°C° 0 mm 3 mps 758 mmHg 92%
    22:00 +24°C° 0 mm 2 mps 759 mmHg 96%
    23:00 +24°C° 0 mm 2 mps 758 mmHg 96%

    19 November, Tuesday

    Time Temperature Precipitation Wind Pressure Humidity
    00:00 +24°C° 0 mm 2 mps 758 mmHg 96%
    01:00 +24°C° 0 mm 1 mps 757 mmHg 96%
    02:00 +24°C° 0 mm 2 mps 757 mmHg 95%
    03:00 +24°C° 0 mm 2 mps 757 mmHg 93%
    04:00 +24°C° 0 mm 2 mps 757 mmHg 92%
    05:00 +25°C° 0 mm 2 mps 758 mmHg 87%
    06:00 +26°C° 0 mm 2 mps 758 mmHg 82%
    07:00 +27°C° 0 mm 2 mps 759 mmHg 77%
    08:00 +29°C° 0 mm 3 mps 759 mmHg 65%
    09:00 +33°C° 0 mm 3 mps 759 mmHg 54%
    10:00 +35°C° 0 mm 4 mps 758 mmHg 42%
    11:00 +36°C° 0 mm 4 mps 758 mmHg 39%
    12:00 +36°C° 0 mm 4 mps 757 mmHg 36%
    13:00 +37°C° 0 mm 4 mps 757 mmHg 32%
    14:00 +36°C° 0 mm 4 mps 757 mmHg 35%
    15:00 +35°C° 0 mm 4 mps 756 mmHg 37%
    16:00 +35°C° 0 mm 4 mps 756 mmHg 40%
    17:00 +32°C° 0 mm 4 mps 757 mmHg 54%
    18:00 +28°C° 0 mm 4 mps 757 mmHg 68%
    19:00 +26°C° 0 mm 4 mps 758 mmHg 82%
    20:00 +25°C° 0 mm 3 mps 758 mmHg 87%
    21:00 +24°C° 0 mm 3 mps 758 mmHg 92%
    22:00 +24°C° 0 mm 3 mps 759 mmHg 96%
    23:00 +22°C° 0 mm 3 mps 758 mmHg 96%

    20 November, Wednesday

    Time Temperature Precipitation Wind Pressure Humidity
    00:00 +22°C° 0 mm 3 mps 758 mmHg 96%
    01:00 +22°C° 0 mm 3 mps 758 mmHg 97%
    02:00 +22°C° 0 mm 3 mps 758 mmHg 96%
    03:00 +22°C° 0 mm 3 mps 758 mmHg 95%
    04:00 +22°C° 0 mm 3 mps 757 mmHg 95%
    05:00 +24°C° 0 mm 3 mps 758 mmHg 91%
    06:00 +25°C° 0 mm 2 mps 758 mmHg 86%
    07:00 +26°C° 0 mm 2 mps 759 mmHg 82%
    08:00 +28°C° 0 mm 3 mps 759 mmHg 69%
    09:00 +31°C° 0 mm 3 mps 758 mmHg 56%
    10:00 +35°C° 0 mm 4 mps 758 mmHg 43%
    11:00 +35°C° 0 mm 4 mps 758 mmHg 38%
    12:00 +36°C° 0 mm 4 mps 757 mmHg 34%
    13:00 +37°C° 0 mm 4 mps 757 mmHg 30%
    14:00 +36°C° 0 mm 4 mps 757 mmHg 33%
    15:00 +36°C° 0 mm 4 mps 756 mmHg 36%
    16:00 +35°C° 0 mm 4 mps 756 mmHg 39%
    17:00 +32°C° 0 mm 4 mps 757 mmHg 53%
    18:00 +28°C° 0 mm 3 mps 757 mmHg 68%
    19:00 +26°C° 0 mm 3 mps 758 mmHg 83%
    20:00 +25°C° 0 mm 3 mps 758 mmHg 88%
    21:00 +24°C° 0 mm 3 mps 759 mmHg 92%
    22:00 +24°C° 0 mm 3 mps 759 mmHg 97%
    23:00 +24°C° 0 mm 3 mps 759 mmHg 95%

    21 November, Thursday

    Time Temperature Precipitation Wind Pressure Humidity
    00:00 +24°C° 0 mm 3 mps 758 mmHg 94%
    01:00 +24°C° 0 mm 3 mps 758 mmHg 92%
    02:00 +25°C° 0.1 mm 3 mps 758 mmHg 90%
    03:00 +25°C° 0.1 mm 3 mps 758 mmHg 88%
    04:00 +25°C° 0.1 mm 3 mps 758 mmHg 87%
    05:00 +25°C° 0 mm 4 mps 758 mmHg 82%
    06:00 +26°C° 0 mm 4 mps 758 mmHg 78%
    07:00 +26°C° 0 mm 4 mps 759 mmHg 74%
    08:00 +29°C° 0 mm 4 mps 759 mmHg 64%
    09:00 +32°C° 0 mm 4 mps 759 mmHg 54%
    10:00 +34°C° 0 mm 4 mps 759 mmHg 44%
    11:00 +34°C° 0 mm 5 mps 759 mmHg 41%
    12:00 +35°C° 0 mm 5 mps 758 mmHg 38%
    13:00 +35°C° 0 mm 5 mps 758 mmHg 35%
    14:00 +35°C° 0 mm 5 mps 757 mmHg 38%
    15:00 +34°C° 0 mm 5 mps 757 mmHg 41%
    16:00 +33°C° 0 mm 5 mps 757 mmHg 44%
    17:00 +30°C° 0 mm 5 mps 757 mmHg 55%
    18:00 +27°C° 0 mm 5 mps 758 mmHg 66%
    19:00 +25°C° 0 mm 4 mps 758 mmHg 77%
    20:00 +23°C° 0 mm 4 mps 759 mmHg 82%
    21:00 +23°C° 0 mm 4 mps 759 mmHg 88%
    22:00 +22°C° 0 mm 4 mps 760 mmHg 94%
    23:00 +22°C° 0.2 mm 4 mps 759 mmHg 93%
    Show more